User: anonymous   Login
Location: Unspecified
(0.0000°N, 0.0000°E)
Time: 15:45:56
(UTC+01:00)
Language:

Delta 2 Rocket - Orbit

View from above orbital plane
View from above orbital plane
View from above satellite
View from above satellite

Ground track
Ground track

The orbit data is extracted from the following two-line orbital elements,

1 20453U 90008B   15031.01746453  .00005835  00000-0  35854-3 0  1925
2 20453 035.6262 273.5054 0311055 172.4805 188.0720 14.77234913319435
Epoch (UTC): 31 January 2015 00:25:08
Eccentricity: 0.0311055
inclination: 35.6262°
perigee height: 420 km
apogee height: 856 km
right ascension of ascending node: 273.5054°
argument of perigee: 172.4805°
revolutions per day: 14.77234913
mean anomaly at epoch: 188.0720°
orbit number at epoch: 31943

The dashed part of the orbit path shows where the satellite is in the earth's shadow,  

DLR